Tavèrnoles





Hora UTC 14:45
Temperatura 23.8 ºC
Humitat 46.0 %
Pressió 1015.8 hPa
Pluja 0.2 mm
Velocitat vent 0.0 km/h
Direcció vent SSW
Radiació solar 492.0 W/m²

Dades diàries 2021-09-19



Hora UTC (hivern +1h; estiu +2h)
Temperatura (ºC) Humitat (%) Pressió (hPa) Velocitat vent (km/h) Precipitació (mm) Radiació solar (W/m²)
Hora UTC Aire Humitat Pressió Vel. Dir. Vel. Max Dir. Intent. màx 5 min. Rad. Sol.
00:05 16.3 93.0 1013.8 0.0 WNW 0.0 0.0 0.0
00:10 16.3 93.0 1013.9 0.0 WNW 0.0 0.2 0.0
00:15 16.2 93.0 1013.9 0.0 WNW 0.0 0.0 0.0
00:20 16.1 93.0 1014.0 0.0 WNW 0.0 0.0 0.0
00:25 16.1 93.0 1013.9 0.0 WNW 0.0 0.0 0.0
00:30 16.2 93.0 1014.0 0.0 WNW 0.0 0.0 0.0
00:35 16.2 93.0 1014.1 0.0 W 0.0 0.0 0.0
00:40 16.3 93.0 1014.0 0.0 W 0.0 0.0 0.0
00:45 16.2 93.0 1013.9 0.0 W 0.0 0.0 0.0
00:50 16.2 93.0 1014.0 0.0 W 0.0 0.0 0.0
00:55 16.1 93.0 1013.9 0.0 W 0.0 0.0 0.0
01:00 16.1 93.0 1014.0 0.0 W 0.0 0.0 0.0
01:05 15.9 93.0 1013.9 0.0 W 0.0 0.0 0.0
01:10 15.9 93.0 1013.9 0.0 W 0.0 0.0 0.0
01:15 15.7 93.0 1013.8 0.0 WSW 0.0 0.0 0.0
01:20 15.7 93.0 1013.8 0.0 S 3.2 0.0 0.0
01:25 15.6 93.0 1013.8 0.0 S 3.2 0.0 0.0
01:30 15.5 93.0 1013.9 0.0 S 0.0 0.0 0.0
01:35 15.3 92.0 1013.9 0.0 S 0.0 0.0 0.0
01:40 15.2 92.0 1014.0 0.0 S 0.0 0.0 0.0
01:45 15.0 92.0 1014.0 0.0 S 0.0 0.0 0.0
01:50 14.9 92.0 1014.1 0.0 S 0.0 0.0 0.0
01:55 14.7 92.0 1014.1 0.0 S 0.0 0.0 0.0
02:00 14.6 92.0 1014.1 0.0 S 0.0 0.0 0.0
02:05 14.4 92.0 1014.1 0.0 S 0.0 0.0 0.0
02:10 14.3 92.0 1014.1 0.0 S 0.0 0.0 0.0
02:15 14.1 92.0 1014.0 0.0 S 0.0 0.0 0.0
02:20 14.0 92.0 1014.1 0.0 S 0.0 0.0 0.0
02:25 13.9 92.0 1014.1 0.0 S 0.0 0.0 0.0
02:30 13.8 92.0 1014.2 0.0 S 0.0 0.0 0.0
02:35 13.7 93.0 1014.3 0.0 S 0.0 0.0 0.0
02:40 13.6 92.0 1014.3 0.0 S 0.0 0.0 0.0
02:45 13.4 92.0 1014.2 0.0 S 0.0 0.0 0.0
02:50 13.3 92.0 1014.2 0.0 S 0.0 0.0 0.0
02:55 13.1 92.0 1014.2 0.0 S 0.0 0.0 0.0
03:00 13.0 93.0 1014.4 0.0 S 0.0 0.0 0.0
03:05 12.9 93.0 1014.4 0.0 S 0.0 0.0 0.0
03:10 12.9 93.0 1014.4 0.0 S 0.0 0.0 0.0
03:15 12.8 93.0 1014.5 0.0 S 0.0 0.0 0.0
03:20 12.8 93.0 1014.5 0.0 S 0.0 0.0 0.0
03:25 12.9 94.0 1014.5 0.0 S 1.6 0.0 0.0
03:30 13.2 94.0 1014.5 0.0 S 4.8 0.0 0.0
03:35 13.3 94.0 1014.5 0.0 S 4.8 0.0 0.0
03:40 13.4 94.0 1014.5 0.0 S 3.2 0.0 0.0
03:45 13.5 94.0 1014.5 0.0 S 3.2 0.0 0.0
03:50 13.6 94.0 1014.5 0.0 S 1.6 0.0 0.0
03:55 13.6 94.0 1014.6 0.0 S 0.0 0.0 0.0
04:00 13.7 94.0 1014.6 0.0 S 0.0 0.0 0.0
04:05 13.7 94.0 1014.6 0.0 S 0.0 0.0 0.0
04:10 13.7 94.0 1014.6 0.0 S 0.0 0.0 0.0
04:15 13.6 93.0 1014.8 0.0 WNW 1.6 0.0 0.0
04:20 13.4 92.0 1014.7 0.0 NW 1.6 0.0 0.0
04:25 13.3 92.0 1014.7 0.0 NW 1.6 0.0 0.0
04:30 13.3 92.0 1014.7 0.0 NW 1.6 0.0 0.0
04:35 13.1 92.0 1014.8 0.0 WNW 0.0 0.0 0.0
04:40 12.8 92.0 1014.8 0.0 WNW 0.0 0.0 0.0
04:45 12.7 92.0 1014.9 0.0 W 0.0 0.0 0.0
04:50 12.6 93.0 1014.9 0.0 W 0.0 0.0 0.0
04:55 12.4 92.0 1015.0 0.0 W 0.0 0.0 0.0
05:00 12.2 92.0 1015.1 0.0 W 0.0 0.0 0.0
05:05 12.1 92.0 1015.2 0.0 W 0.0 0.0 0.0
05:10 11.9 93.0 1015.3 0.0 W 0.0 0.0 0.0
05:15 11.8 93.0 1015.3 0.0 W 0.0 0.0 0.0
05:20 11.7 92.0 1015.3 0.0 W 0.0 0.0 0.0
05:25 11.5 92.0 1015.4 0.0 W 0.0 0.0 0.0
05:30 11.4 93.0 1015.5 0.0 W 0.0 0.0 0.0
05:35 11.3 93.0 1015.6 0.0 W 0.0 0.0 0.0
05:40 11.2 93.0 1015.7 0.0 W 0.0 0.0 0.0
05:45 11.1 93.0 1015.7 0.0 SW 3.2 0.0 0.0
05:50 11.1 93.0 1015.7 0.0 SW 3.2 0.0 5.0
05:55 11.1 93.0 1015.8 0.0 SW 1.6 0.0 7.0
06:00 10.9 93.0 1015.9 0.0 S 4.8 0.0 7.0
06:05 10.9 93.0 1016.0 0.0 S 4.8 0.0 9.0
06:10 11.0 93.0 1016.0 0.0 S 4.8 0.0 9.0
06:15 10.9 93.0 1016.1 0.0 S 1.6 0.0 11.0
06:20 10.9 93.0 1016.2 0.0 S 1.6 0.0 11.0
06:25 10.9 93.0 1016.3 0.0 S 0.0 0.0 12.0
06:30 10.8 93.0 1016.3 0.0 S 0.0 0.0 12.0
06:35 10.8 93.0 1016.4 1.6 S 1.6 0.0 12.0
06:40 10.7 93.0 1016.3 0.0 S 1.6 0.0 14.0
06:45 10.8 94.0 1016.3 0.0 S 1.6 0.0 14.0
06:50 10.9 94.0 1016.4 0.0 S 3.2 0.0 16.0
06:55 11.1 94.0 1016.4 0.0 S 3.2 0.0 18.0
07:00 11.1 94.0 1016.4 0.0 S 0.0 0.0 16.0
07:05 11.2 94.0 1016.5 0.0 S 0.0 0.0 26.0
07:10 11.3 94.0 1016.6 0.0 S 0.0 0.0 32.0
07:15 11.4 94.0 1016.7 0.0 S 0.0 0.0 42.0
07:20 11.7 94.0 1016.7 0.0 S 1.6 0.0 26.0
07:25 11.9 95.0 1016.8 0.0 S 1.6 0.0 32.0
07:30 12.0 95.0 1016.7 0.0 S 0.0 0.0 39.0
07:35 12.1 95.0 1016.8 0.0 S 0.0 0.0 65.0
07:40 12.3 95.0 1016.8 0.0 S 0.0 0.0 83.0
07:45 12.6 95.0 1016.9 0.0 S 0.0 0.0 86.0
07:50 12.8 95.0 1016.8 0.0 S 0.0 0.0 113.0
07:55 12.9 95.0 1016.9 0.0 S 0.0 0.0 142.0
08:00 13.1 95.0 1017.0 0.0 S 0.0 0.0 146.0
08:05 13.2 95.0 1017.0 0.0 S 0.0 0.0 153.0
08:10 13.4 95.0 1017.0 0.0 S 0.0 0.0 151.0
08:15 13.4 93.0 1017.1 0.0 S 0.0 0.0 165.0
08:20 13.6 92.0 1017.2 0.0 SSW 0.0 0.0 186.0
08:25 13.8 92.0 1017.2 0.0 SSW 0.0 0.0 186.0
08:30 13.9 92.0 1017.3 0.0 SSW 0.0 0.0 183.0
08:35 14.1 91.0 1017.2 0.0 SSW 0.0 0.0 153.0
08:40 14.3 90.0 1017.3 0.0 SSW 0.0 0.0 156.0
08:45 14.4 88.0 1017.4 0.0 NNW 1.6 0.0 494.0
08:50 14.6 88.0 1017.4 0.0 N 1.6 0.0 283.0
08:55 14.9 89.0 1017.5 0.0 NNW 0.0 0.0 297.0
09:00 15.2 87.0 1017.4 0.0 WSW 0.0 0.0 315.0
09:05 15.4 84.0 1017.5 0.0 WNW 4.8 0.0 227.0
09:10 15.6 84.0 1017.5 0.0 WNW 4.8 0.0 237.0
09:15 15.8 84.0 1017.5 0.0 WNW 0.0 0.0 315.0
09:20 16.1 83.0 1017.6 0.0 WNW 1.6 0.0 162.0
09:25 16.2 82.0 1017.6 0.0 WNW 1.6 0.0 137.0
09:30 16.3 82.0 1017.7 0.0 WNW 1.6 0.0 265.0
09:35 16.5 82.0 1017.7 0.0 SE 4.8 0.0 563.0
09:40 16.9 81.0 1017.6 3.2 NW 6.4 0.0 455.0
09:45 17.2 78.0 1017.6 4.8 N 6.4 0.0 459.0
09:50 17.1 78.0 1017.6 0.0 NW 6.4 0.0 285.0
09:55 17.3 78.0 1017.6 0.0 WNW 6.4 0.0 137.0
10:00 17.3 77.0 1017.6 0.0 W 4.8 0.0 183.0
10:05 17.4 77.0 1017.6 6.4 NW 6.4 0.0 650.0
10:10 17.8 78.0 1017.6 0.0 SSW 6.4 0.0 679.0
10:15 17.9 77.0 1017.5 0.0 WNW 6.4 0.0 671.0
10:20 18.1 75.0 1017.4 0.0 W 4.8 0.0 643.0
10:25 17.9 73.0 1017.3 1.6 NW 4.8 0.0 650.0
10:30 18.0 72.0 1017.3 3.2 NNE 6.4 0.0 628.0
10:35 18.3 71.0 1017.2 0.0 NNW 6.4 0.0 657.0
10:40 18.7 72.0 1017.2 6.4 WNW 6.4 0.0 661.0
10:45 18.8 68.0 1017.2 3.2 NNW 6.4 0.0 670.0
10:50 18.8 69.0 1017.2 0.0 WNW 8.0 0.0 673.0
10:55 19.2 67.0 1017.1 0.0 SSW 8.0 0.0 677.0
11:00 19.7 69.0 1017.1 3.2 NW 12.9 0.0 684.0
11:05 19.8 64.0 1017.2 0.0 WSW 12.9 0.0 687.0
11:10 20.1 66.0 1017.1 0.0 WSW 6.4 0.0 693.0
11:15 20.4 67.0 1017.1 0.0 WNW 6.4 0.0 696.0
11:20 20.3 62.0 1017.1 1.6 SSW 12.9 0.0 694.0
11:25 20.3 62.0 1017.1 1.6 SE 12.9 0.0 700.0
11:30 20.3 64.0 1017.0 1.6 SW 9.7 0.0 698.0
11:35 20.5 65.0 1016.9 3.2 WNW 8.0 0.0 696.0
11:40 20.7 63.0 1017.0 1.6 SE 8.0 0.0 703.0
11:45 21.0 64.0 1016.9 3.2 NW 8.0 0.0 703.0
11:50 21.2 61.0 1016.9 3.2 N 8.0 0.0 705.0
11:55 21.2 61.0 1016.9 0.0 SE 8.0 0.0 705.0
12:00 21.6 62.0 1016.9 0.0 NW 8.0 0.0 705.0
12:05 21.8 59.0 1016.8 0.0 WSW 4.8 0.0 703.0
12:10 21.9 58.0 1016.9 1.6 S 6.4 0.0 703.0
12:15 22.0 59.0 1016.8 1.6 SSW 8.0 0.0 693.0
12:20 22.1 57.0 1016.7 1.6 NW 8.0 0.0 698.0
12:25 22.1 59.0 1016.8 0.0 N 9.7 0.0 698.0
12:30 22.2 56.0 1016.7 0.0 WNW 9.7 0.0 686.0
12:35 22.3 58.0 1016.7 8.0 N 8.0 0.0 687.0
12:40 22.3 56.0 1016.6 4.8 NNW 9.7 0.0 687.0
12:45 22.4 58.0 1016.5 0.0 WNW 9.7 0.0 682.0
12:50 22.4 55.0 1016.5 0.0 N 12.9 0.0 675.0
12:55 22.5 55.0 1016.5 0.0 SW 12.9 0.0 670.0
13:00 22.6 55.0 1016.5 0.0 NW 6.4 0.0 664.0
13:05 22.7 55.0 1016.5 0.0 NNW 6.4 0.0 661.0
13:10 22.9 55.0 1016.3 1.6 WNW 6.4 0.0 657.0
13:15 23.2 57.0 1016.4 0.0 NNW 6.4 0.0 656.0
13:20 23.5 53.0 1016.3 0.0 SSW 6.4 0.0 645.0
13:25 23.5 55.0 1016.2 0.0 W 8.0 0.0 638.0
13:30 23.5 53.0 1016.2 0.0 WSW 8.0 0.0 643.0
13:35 23.6 54.0 1016.2 0.0 W 6.4 0.0 657.0
13:40 23.5 56.0 1016.2 0.0 NNW 4.8 0.0 631.0
13:45 23.6 52.0 1016.2 0.0 WNW 3.2 0.0 613.0
13:50 23.8 54.0 1016.1 0.0 WNW 1.6 0.0 642.0
13:55 23.8 52.0 1016.1 0.0 N 9.7 0.0 629.0
14:00 23.6 52.0 1016.0 0.0 NNW 9.7 0.0 599.0
14:05 23.4 52.0 1016.0 4.8 NNW 9.7 0.0 580.0
14:10 23.4 50.0 1016.0 0.0 NNW 9.7 0.0 563.0
14:15 23.4 48.0 1016.0 1.6 WNW 8.0 0.0 550.0
14:20 23.7 50.0 1015.9 0.0 W 8.0 0.0 543.0
14:25 24.1 48.0 1015.9 0.0 WNW 6.4 0.0 534.0
14:30 24.0 47.0 1015.9 0.0 NNW 6.4 0.0 522.0
14:35 24.1 48.0 1016.0 0.0 W 6.4 0.0 513.0
14:40 24.1 46.0 1016.0 0.0 S 3.2 0.0 499.0
14:45 23.8 46.0 1015.8 0.0 SSW 8.0 0.0 492.0
Màxima 24.2 95.0 1017.7 8.0 N 12.9 0.2 705.0
Mínima 10.7 46.0 1013.8
Total 0.2